Total_Precipitation_Accumulation
0.76 0.87 0.89 1.02 1.09 1.24 1.45 1.42 1.14 0.98 0.71 0.68 0.80 1.11 1.29 1.83 1.43 1.01 0.57 0.36 0.35 0.51 0.52 0.40 0.31 0.30 0.56 0.76 0.64 0.75 1.06 0.49 0.07 0.03 0.02 0.00 0.01 0.01 0.01 0.00 0.00 0.00 0.06 0.09 0.13
0.57 0.59 0.96 1.20 1.25 1.16 1.11 1.25 1.21 1.09 0.77 0.57 0.66 1.00 1.54 2.17 1.67 0.85 0.68 0.64 0.82 1.26 0.58 0.32 0.36 0.45 0.58 0.73 1.23 1.26 1.36 0.33 0.04 0.02 0.03 0.01 0.01 0.01 0.03 0.01 0.08 0.08 0.05 0.05 0.27
0.67 0.79 0.78 0.96 1.10 1.26 1.09 0.95 1.02 1.18 0.82 0.53 0.63 1.06 1.68 2.33 2.57 1.01 0.90 0.94 1.19 1.45 1.00 0.38 0.74 0.70 0.46 0.84 1.02 1.25 0.83 0.14 0.09 0.14 0.16 0.04 0.03 0.01 0.08 0.11 0.02 0.08 0.09 0.15 0.39
0.79 0.84 0.80 0.92 0.92 1.04 1.06 1.05 1.18 1.44 1.15 0.74 0.84 1.34 1.72 2.36 2.69 1.52 0.95 0.64 0.96 1.36 1.39 0.58 0.75 0.84 0.52 0.56 0.78 0.98 0.41 0.23 0.19 0.30 0.19 0.07 0.05 0.02 0.04 0.02 0.00 0.10 0.14 0.18 0.34
0.93 1.10 1.02 0.91 0.81 0.82 0.92 1.10 1.39 1.43 1.06 0.94 1.13 1.93 1.72 2.11 1.68 1.31 0.63 0.33 0.85 1.79 1.28 1.04 0.73 0.89 0.51 0.23 0.91 0.79 0.52 0.42 0.47 0.38 0.29 0.23 0.15 0.04 0.01 0.02 0.03 0.13 0.14 0.19 0.34
1.31 1.14 0.88 0.79 0.78 0.93 1.17 1.52 1.63 1.51 0.95 0.78 1.56 1.86 1.52 1.65 1.36 1.42 0.69 0.53 0.90 1.64 1.38 1.21 0.86 1.36 0.78 0.52 0.67 0.69 0.75 0.57 0.73 0.55 0.43 0.29 0.17 0.21 0.03 0.06 0.15 0.26 0.31 0.34 0.33
1.43 1.25 0.97 0.81 0.71 0.76 0.90 1.17 1.59 1.60 1.14 1.10 1.49 1.58 1.68 1.62 1.22 1.59 0.68 0.71 0.88 1.40 1.54 1.15 0.81 1.22 1.28 0.84 0.35 0.77 0.92 1.04 0.93 0.75 0.66 0.44 0.38 0.31 0.06 0.10 0.18 0.28 0.30 0.47 0.42
1.59 1.20 0.88 0.78 0.69 0.68 0.65 0.70 0.68 0.92 1.27 1.29 1.75 1.49 1.85 1.70 1.35 1.51 0.94 0.80 0.93 1.40 1.83 1.50 1.01 1.09 1.17 1.25 0.78 0.84 1.51 1.54 1.00 1.27 1.01 0.70 0.31 0.09 0.11 0.13 0.11 0.21 0.39 0.57 0.62
1.80 1.18 0.92 0.78 0.72 0.86 0.91 0.90 0.86 0.91 1.16 1.48 1.69 1.89 1.53 1.57 1.02 1.11 1.25 1.15 1.39 1.65 2.45 2.24 1.46 1.21 1.02 1.49 1.69 0.98 1.31 1.12 0.97 1.02 1.41 0.84 0.24 0.10 0.12 0.17 0.09 0.13 0.34 0.47 0.63
1.40 1.00 0.90 0.71 0.63 0.91 2.07 1.84 1.96 1.66 1.63 1.91 2.22 2.52 1.77 1.61 1.00 0.87 1.36 1.35 1.76 1.99 3.49 3.73 2.53 1.30 1.12 1.21 1.37 0.69 0.68 0.75 0.78 0.69 1.04 1.13 0.36 0.19 0.15 0.18 0.08 0.05 0.13 0.40 0.58
0.96 0.90 0.91 0.80 1.03 1.47 2.15 2.75 2.51 2.14 2.09 2.77 2.49 2.04 1.53 1.08 0.60 0.85 1.17 2.36 2.53 2.58 3.12 3.54 2.47 1.00 0.73 0.74 0.49 0.55 0.44 0.65 0.56 0.55 0.64 0.95 0.67 0.24 0.16 0.20 0.18 0.07 0.06 0.23 0.51
0.91 1.03 1.12 1.01 1.20 1.71 1.90 2.73 2.44 2.38 2.92 2.65 1.57 1.36 1.06 0.80 1.03 0.78 1.26 3.61 2.84 2.30 2.43 2.64 1.35 0.41 0.67 0.92 0.49 0.43 0.40 0.76 0.87 0.71 0.75 0.65 0.86 0.43 0.18 0.16 0.15 0.17 0.13 0.22 0.47
1.08 1.17 1.16 1.12 1.18 1.40 1.45 1.95 1.94 1.99 2.65 3.15 2.43 1.90 1.39 1.32 1.11 0.98 1.75 3.07 2.32 1.92 1.93 1.55 0.74 0.58 0.81 1.40 0.68 0.36 0.19 0.45 1.27 0.95 0.66 0.52 0.60 0.70 0.27 0.15 0.14 0.18 0.23 0.35 0.56
1.14 1.16 1.28 1.37 1.36 1.24 1.29 1.65 1.72 1.98 2.62 3.67 2.42 2.27 1.59 1.51 1.39 0.83 1.60 2.25 2.23 1.91 2.24 1.89 0.66 0.56 0.88 1.57 0.88 0.65 0.15 0.48 0.87 0.86 0.71 0.40 0.60 0.44 0.32 0.22 0.16 0.25 0.28 0.31 0.43
1.07 1.06 1.20 1.80 1.89 1.63 1.51 1.42 1.86 2.17 3.24 3.42 2.47 1.88 1.72 1.39 1.18 1.06 1.46 1.57 1.09 1.35 1.88 1.69 0.91 0.76 0.94 0.95 0.75 0.67 0.33 0.80 0.94 0.75 0.79 0.42 0.78 0.23 0.27 0.24 0.29 0.28 0.17 0.16 0.17
1.09 1.15 1.48 1.55 1.66 1.09 1.16 1.73 2.23 2.86 3.43 3.48 2.45 1.83 1.48 1.28 1.03 1.18 1.54 1.17 0.98 1.10 1.05 0.92 0.93 0.93 0.78 0.52 0.27 0.24 0.29 0.76 1.25 1.07 1.13 0.31 0.38 0.23 0.23 0.20 0.40 0.32 0.15 0.27 0.23
1.46 1.45 1.81 1.49 1.16 0.91 1.69 2.77 3.35 2.80 2.02 2.01 1.55 0.87 0.81 1.05 1.04 0.91 1.19 1.09 0.97 1.29 1.64 1.50 1.24 0.90 0.77 0.36 0.24 0.29 0.74 1.61 1.72 1.56 0.79 0.23 0.16 0.15 0.11 0.10 0.26 0.38 0.25 0.36 0.49
2.21 1.76 1.59 1.18 0.82 1.54 2.72 2.95 3.20 1.84 1.42 0.79 0.61 0.67 0.75 0.70 1.01 0.77 0.77 0.74 0.29 0.20 0.92 1.61 2.01 1.15 0.63 0.28 0.34 0.35 0.69 1.41 1.50 0.59 0.50 0.20 0.26 0.19 0.21 0.19 0.19 0.35 0.47 0.72 0.98
2.34 1.73 1.52 1.08 0.99 2.20 3.07 3.10 2.18 1.26 0.93 0.36 0.44 0.63 0.69 0.59 0.74 0.81 0.60 0.40 0.20 0.16 0.58 0.68 1.18 0.58 0.28 0.08 0.16 0.34 0.54 0.47 0.82 0.32 0.50 0.38 0.31 0.39 0.41 0.39 0.28 0.38 0.71 0.96 1.05
2.07 1.88 1.68 1.27 1.71 3.07 3.65 2.78 0.93 0.53 0.23 0.22 0.48 0.41 0.48 0.56 0.69 0.87 0.47 0.16 0.11 0.08 0.10 0.17 0.62 0.30 0.16 0.13 0.07 0.08 0.15 0.45 0.76 0.92 0.60 0.31 0.28 0.69 0.68 0.62 0.63 0.67 0.88 1.00 0.91
3.25 3.00 2.24 1.68 3.28 5.21 4.01 1.73 0.56 0.20 0.13 0.24 0.27 0.28 0.29 0.39 0.61 0.66 0.53 0.16 0.06 0.06 0.02 0.01 0.21 0.30 0.23 0.26 0.10 0.04 0.15 0.25 0.50 0.69 1.07 0.40 0.25 0.40 0.51 0.55 0.71 0.59 0.76 0.80 0.88
4.26 4.46 3.13 2.80 4.82 4.77 2.77 1.06 0.66 0.19 0.08 0.09 0.21 0.35 0.33 0.34 0.39 0.54 0.33 0.15 0.07 0.03 0.02 0.00 0.06 0.12 0.14 0.03 0.01 0.02 0.01 0.08 0.61 0.47 0.62 0.54 0.27 0.05 0.17 0.41 0.35 0.41 0.45 0.43 0.51
5.11 4.40 3.80 4.42 5.15 2.95 1.30 0.61 0.35 0.22 0.16 0.23 0.23 0.26 0.24 0.25 0.39 0.21 0.23 0.11 0.07 0.13 0.15 0.05 0.13 0.22 0.23 0.17 0.06 0.06 0.02 0.11 0.27 0.59 0.42 0.54 0.12 0.01 0.13 0.25 0.16 0.26 0.41 0.22 0.14
5.42 5.09 4.88 5.52 4.51 1.98 1.54 1.13 0.82 0.64 0.44 0.52 0.50 0.32 0.43 0.38 0.34 0.24 0.09 0.07 0.05 0.06 0.15 0.21 0.39 0.20 0.17 0.12 0.20 0.18 0.03 0.10 0.44 0.69 0.17 0.09 0.01 0.00 0.09 0.10 0.10 0.30 0.47 0.16 0.16
4.84 3.72 3.18 4.30 3.62 2.67 2.47 2.35 1.52 1.36 1.32 1.09 1.22 0.96 0.99 1.08 0.65 0.51 0.37 0.31 0.17 0.14 0.16 0.58 0.96 0.31 0.08 0.06 0.22 0.20 0.08 0.08 0.37 0.21 0.38 0.10 0.01 0.01 0.03 0.17 0.32 0.67 0.63 0.19 0.19
3.55 2.73 2.51 2.46 2.33 2.45 2.69 2.50 1.52 1.41 1.53 1.30 1.47 1.37 1.45 1.71 1.42 1.18 1.02 0.92 0.74 0.54 0.50 0.86 1.33 0.70 0.47 0.11 0.15 0.25 0.06 0.07 0.10 0.04 0.08 0.05 0.06 0.03 0.03 0.32 0.25 0.68 0.75 0.34 0.22
2.87 2.24 2.42 2.12 1.90 2.36 2.41 1.59 1.14 1.14 1.36 1.00 1.04 1.09 0.93 0.89 0.92 0.89 0.86 0.72 0.78 0.77 0.96 1.41 1.53 1.54 1.04 0.26 0.47 0.54 0.09 0.03 0.03 0.06 0.12 0.35 0.48 0.19 0.21 0.63 0.35 0.50 0.56 0.39 0.27